Location: *
(55.5817°S, 142.4781°W)
Time: 07:28:35
(UTC+00:00)

Radarsat Rocket - Pass Details

Date: 29 April 2025
Orbit: 933 x 1491 km, 100.5° (Epoch: 18 May)

Event Time Altitude Azimuth Distance (km) Brightness Sun altitude
Rises 15:48:51 0° 17° (NNE) 4,280 7.8 -9.1°
Reaches altitude 10° 15:51:40 10° 16° (NNE) 3,241 7.1 -8.7°
Maximum altitude 15:59:04 78° 289° (WNW) 1,179 4.4 -7.7°
Drops below altitude 10° 16:05:37 10° 201° (SSW) 2,890 6.1 -6.8°
Sets 16:08:01 0° 199° (SSW) 3,792 6.7 -6.5°
